| time (UTC) | temp F | wind direction | speed MPH | gust MPH | rain 1hr in | rain 24hr in | rain mn in | humidity % | barometer mb |
| 20260903013507 | 74 | 46 | 5.0 | 8.0 | 0.00 | 0.01 | 0.01 | 70 | 1010.1 |
| 20260903013054 | 74 | 61 | 4.0 | 8.0 | 0.00 | 0.01 | 0.01 | 69 | 1006.3 |
| 20260903013023 | 74 | 53 | 4.0 | 10.0 | 0.00 | 0.01 | 0.01 | 69 | 1010.1 |
| 20260903012509 | 75 | 61 | 4.0 | 10.0 | 0.00 | 0.01 | 0.01 | 69 | 1010.0 |
| 20260903012010 | 75 | 62 | 3.0 | 9.0 | 0.00 | 0.01 | 0.01 | 68 | 1010.1 |
| 20260903011550 | 75 | 58 | 3.0 | 8.0 | 0.00 | 0.01 | 0.01 | 68 | 1006.3 |
| 20260903011527 | 75 | 65 | 4.0 | 8.0 | 0.00 | 0.01 | 0.01 | 68 | 1010.2 |
| 20260903011010 | 75 | 44 | 5.0 | 8.0 | 0.00 | 0.01 | 0.01 | 67 | 1010.1 |
| 20260903010518 | 76 | 45 | 6.0 | 10.0 | 0.00 | 0.01 | 0.01 | 66 | 1010.2 |
| 20260903010051 | 76 | 52 | 4.0 | 10.0 | 0.00 | 0.01 | 0.01 | 66 | 1006.3 |
| 20260903010026 | 76 | 62 | 5.0 | 10.0 | 0.00 | 0.01 | 0.01 | 66 | 1010.2 |
| 20260903005515 | 76 | 66 | 6.0 | 10.0 | 0.00 | 0.01 | 0.01 | 65 | 1010.3 |
| 20260903005015 | 77 | 55 | 6.0 | 11.0 | 0.00 | 0.01 | 0.01 | 64 | 1010.2 |
| 20260903004552 | 77 | 57 | 5.0 | 11.0 | 0.00 | 0.01 | 0.01 | 64 | 1006.3 |
| 20260903004525 | 77 | 44 | 5.0 | 11.0 | 0.00 | 0.01 | 0.01 | 64 | 1010.3 |
| 20260903004006 | 77 | 50 | 5.0 | 11.0 | 0.00 | 0.01 | 0.01 | 64 | 1010.3 |
| 20260903003508 | 77 | 84 | 7.0 | 11.0 | 0.00 | 0.01 | 0.01 | 63 | 1010.3 |
| 20260903003048 | 78 | 59 | 6.0 | 11.0 | 0.00 | 0.01 | 0.01 | 63 | 1006.2 |
| 20260903003016 | 78 | 63 | 6.0 | 9.0 | 0.00 | 0.01 | 0.01 | 62 | 1010.2 |
| 20260903002512 | 78 | 84 | 6.0 | 9.0 | 0.00 | 0.01 | 0.01 | 61 | 1010.2 |
| 20260903002012 | 78 | 83 | 5.0 | 13.0 | 0.00 | 0.01 | 0.01 | 61 | 1010.3 |
| 20260903001550 | 79 | 72 | 4.0 | 13.0 | 0.00 | 0.01 | 0.01 | 61 | 1006.3 |
| 20260903001532 | 79 | 59 | 5.0 | 14.0 | 0.00 | 0.01 | 0.01 | 60 | 1010.2 |
| 20260903001010 | 79 | 53 | 6.0 | 14.0 | 0.00 | 0.01 | 0.01 | 60 | 1010.2 |
| 20260903000510 | 80 | 48 | 8.0 | 14.0 | 0.00 | 0.01 | 0.01 | 59 | 1010.3 |
| 20260903000046 | 80 | 59 | 7.0 | 15.0 | 0.00 | 0.01 | 0.01 | 59 | 1006.3 |
| 20260903000031 | 80 | 53 | 8.0 | 15.0 | 0.00 | 0.01 | 0.01 | 59 | 1010.3 |
| 20260902235512 | 80 | 48 | 7.0 | 15.0 | 0.00 | 0.01 | 0.01 | 59 | 1010.2 |
| 20260902235014 | 80 | 70 | 7.0 | 13.0 | 0.00 | 0.01 | 0.01 | 59 | 1010.3 |
| 20260902234558 | 80 | 56 | 6.0 | 11.0 | 0.00 | 0.01 | 0.01 | 60 | 1006.4 |
| 20260902234527 | 80 | 14 | 6.0 | 11.0 | 0.00 | 0.01 | 0.01 | 59 | 1010.3 |
| 20260902234018 | 81 | 85 | 7.0 | 14.0 | 0.00 | 0.01 | 0.01 | 59 | 1010.3 |
| 20260902233510 | 81 | 56 | 7.0 | 14.0 | 0.00 | 0.01 | 0.01 | 58 | 1010.3 |
| 20260902233045 | 81 | 56 | 6.0 | 13.0 | 0.00 | 0.01 | 0.01 | 58 | 1006.4 |
| 20260902233028 | 81 | 69 | 6.0 | 13.0 | 0.00 | 0.01 | 0.01 | 58 | 1010.3 |
| 20260902232509 | 81 | 15 | 8.0 | 14.0 | 0.00 | 0.01 | 0.01 | 57 | 1010.3 |
| 20260902232008 | 81 | 66 | 8.0 | 14.0 | 0.00 | 0.01 | 0.01 | 56 | 1010.3 |
| 20260902231550 | 82 | 53 | 6.0 | 13.0 | 0.00 | 0.01 | 0.01 | 57 | 1006.3 |
| 20260902231518 | 82 | 45 | 7.0 | 13.0 | 0.00 | 0.01 | 0.01 | 56 | 1010.3 |
| 20260902231009 | 82 | 67 | 7.0 | 15.0 | 0.00 | 0.01 | 0.01 | 56 | 1010.3 |
| 20260902230512 | 82 | 63 | 10.0 | 15.0 | 0.00 | 0.01 | 0.01 | 55 | 1010.3 |
| 20260902230042 | 82 | 41 | 6.0 | 14.0 | 0.00 | 0.01 | 0.01 | 55 | 1006.4 |
| 20260902230028 | 82 | 51 | 6.0 | 14.0 | 0.00 | 0.01 | 0.01 | 54 | 1010.3 |
| 20260902225516 | 83 | 56 | 5.0 | 13.0 | 0.00 | 0.01 | 0.01 | 53 | 1010.2 |
| 20260902225011 | 83 | 74 | 6.0 | 14.0 | 0.00 | 0.01 | 0.01 | 53 | 1010.3 |
| 20260902224545 | 83 | 68 | 6.0 | 14.0 | 0.00 | 0.01 | 0.01 | 53 | 1006.4 |
| 20260902224525 | 82 | 67 | 7.0 | 14.0 | 0.00 | 0.01 | 0.01 | 52 | 1010.3 |
| 20260902224017 | 83 | 46 | 8.0 | 15.0 | 0.00 | 0.01 | 0.01 | 51 | 1010.4 |
| 20260902223512 | 82 | 93 | 6.0 | 15.0 | 0.00 | 0.01 | 0.01 | 53 | 1010.4 |
| 20260902223040 | 83 | 63 | 8.0 | 15.0 | 0.00 | 0.01 | 0.01 | 53 | 1006.5 |
| 20260902223028 | 83 | 47 | 8.0 | 14.0 | 0.00 | 0.01 | 0.01 | 52 | 1010.3 |
| 20260902222513 | 83 | 56 | 8.0 | 14.0 | 0.00 | 0.01 | 0.01 | 51 | 1010.4 |
| 20260902222011 | 83 | 71 | 5.0 | 17.0 | 0.00 | 0.01 | 0.01 | 52 | 1010.4 |
| 20260902221540 | 83 | 63 | 7.0 | 17.0 | 0.00 | 0.01 | 0.01 | 53 | 1006.6 |
| 20260902221531 | 83 | 37 | 7.0 | 17.0 | 0.00 | 0.01 | 0.01 | 51 | 1010.5 |
| 20260902221012 | 83 | 82 | 6.0 | 16.0 | 0.00 | 0.01 | 0.01 | 51 | 1010.5 |
| 20260902220508 | 83 | 56 | 9.0 | 15.0 | 0.00 | 0.01 | 0.01 | 51 | 1010.6 |
| 20260902220039 | 83 | 96 | 6.0 | 15.0 | 0.00 | 0.01 | 0.01 | 51 | 1006.6 |
| 20260902220021 | 83 | 126 | 6.0 | 15.0 | 0.00 | 0.01 | 0.01 | 50 | 1010.6 |
| 20260902215514 | 83 | 115 | 7.0 | 17.0 | 0.00 | 0.01 | 0.01 | 50 | 1010.7 |
| 20260902215011 | 83 | 112 | 6.0 | 17.0 | 0.00 | 0.01 | 0.01 | 51 | 1010.7 |
| 20260902214540 | 83 | 65 | 7.0 | 17.0 | 0.00 | 0.01 | 0.01 | 50 | 1006.7 |
| 20260902214527 | 83 | 101 | 7.0 | 17.0 | 0.00 | 0.01 | 0.01 | 50 | 1010.7 |
| 20260902214012 | 83 | 69 | 5.0 | 17.0 | 0.00 | 0.01 | 0.01 | 51 | 1010.7 |
| 20260902213512 | 83 | 78 | 10.0 | 17.0 | 0.00 | 0.01 | 0.01 | 50 | 1010.9 |
| 20260902213035 | 84 | 33 | 7.0 | 14.0 | 0.00 | 0.01 | 0.01 | 50 | 1006.9 |
| 20260902213027 | 84 | 55 | 6.0 | 13.0 | 0.00 | 0.01 | 0.01 | 50 | 1010.8 |
| 20260902212504 | 83 | 109 | 7.0 | 13.0 | 0.00 | 0.01 | 0.01 | 50 | 1010.9 |
| 20260902212005 | 83 | 75 | 7.0 | 15.0 | 0.00 | 0.01 | 0.01 | 51 | 1011.0 |
| 20260902211538 | 83 | 70 | 7.0 | 15.0 | 0.00 | 0.01 | 0.01 | 51 | 1007.2 |
| 20260902211517 | 83 | 50 | 8.0 | 15.0 | 0.00 | 0.01 | 0.01 | 50 | 1011.1 |
| 20260902211009 | 83 | 101 | 7.0 | 15.0 | 0.00 | 0.01 | 0.01 | 51 | 1011.1 |
| 20260902210513 | 83 | 58 | 6.0 | 14.0 | 0.00 | 0.01 | 0.01 | 50 | 1011.1 |
| 20260902210032 | 83 | 58 | 5.0 | 14.0 | 0.00 | 0.01 | 0.01 | 51 | 1007.2 |
| 20260902210017 | 83 | 71 | 6.0 | 14.0 | 0.00 | 0.01 | 0.01 | 51 | 1011.1 |
| 20260902205510 | 83 | 58 | 6.0 | 13.0 | 0.00 | 0.01 | 0.01 | 51 | 1011.2 |
| 20260902205010 | 83 | 91 | 8.0 | 14.0 | 0.00 | 0.01 | 0.01 | 50 | 1011.3 |
| 20260902204530 | 83 | 89 | 7.0 | 14.0 | 0.00 | 0.01 | 0.01 | 50 | 1007.4 |
| 20260902204524 | 83 | 68 | 8.0 | 14.0 | 0.00 | 0.01 | 0.01 | 50 | 1011.3 |
| 20260902204013 | 83 | 67 | 9.0 | 17.0 | 0.00 | 0.01 | 0.01 | 49 | 1011.4 |
| 20260902203513 | 83 | 72 | 9.0 | 17.0 | 0.00 | 0.01 | 0.01 | 49 | 1011.5 |
| 20260902203028 | 83 | 49 | 4.0 | 16.0 | 0.00 | 0.01 | 0.01 | 52 | 1007.6 |
| 20260902202516 | 83 | 130 | 5.0 | 13.0 | 0.00 | 0.01 | 0.01 | 51 | 1011.6 |
| 20260902202013 | 83 | 68 | 5.0 | 16.0 | 0.00 | 0.01 | 0.01 | 51 | 1011.6 |
| 20260902201537 | 83 | 139 | 7.0 | 16.0 | 0.00 | 0.01 | 0.01 | 51 | 1011.7 |
| 20260902201534 | 83 | 76 | 5.0 | 16.0 | 0.00 | 0.01 | 0.01 | 51 | 1007.7 |
| 20260902201007 | 82 | 105 | 5.0 | 14.0 | 0.00 | 0.01 | 0.01 | 51 | 1011.7 |
| 20260902200508 | 82 | 66 | 8.0 | 14.0 | 0.00 | 0.01 | 0.01 | 50 | 1011.7 |
| 20260902200023 | 83 | 75 | 6.0 | 15.0 | 0.00 | 0.01 | 0.01 | 54 | 1008.0 |
| 20260902200014 | 82 | 54 | 6.0 | 15.0 | 0.00 | 0.01 | 0.01 | 53 | 1011.8 |
| 20260902195509 | 82 | 80 | 8.0 | 15.0 | 0.00 | 0.01 | 0.01 | 51 | 1011.9 |
| 20260902195006 | 82 | 70 | 6.0 | 15.0 | 0.00 | 0.01 | 0.01 | 52 | 1011.9 |
| 20260902194527 | 82 | 60 | 8.0 | 15.0 | 0.00 | 0.01 | 0.01 | 52 | 1011.9 |
| 20260902194523 | 82 | 120 | 8.0 | 15.0 | 0.00 | 0.01 | 0.01 | 53 | 1008.0 |
| 20260902194012 | 82 | 68 | 6.0 | 14.0 | 0.00 | 0.01 | 0.01 | 51 | 1011.8 |
| 20260902193513 | 82 | 94 | 8.0 | 15.0 | 0.00 | 0.01 | 0.01 | 52 | 1011.8 |
| 20260902193024 | 82 | 70 | 7.0 | 15.0 | 0.00 | 0.01 | 0.01 | 51 | 1011.9 |
| 20260902193020 | 82 | 60 | 7.0 | 15.0 | 0.00 | 0.01 | 0.01 | 52 | 1008.2 |
| 20260902192513 | 83 | 108 | 8.0 | 15.0 | 0.00 | 0.01 | 0.01 | 51 | 1011.9 |
| 20260902192013 | 82 | 108 | 6.0 | 12.0 | 0.00 | 0.01 | 0.01 | 50 | 1012.0 |
| 20260902191538 | 82 | 86 | 5.0 | 15.0 | 0.00 | 0.01 | 0.01 | 51 | 1012.0 |
| 20260902191519 | 82 | 128 | 4.0 | 15.0 | 0.00 | 0.01 | 0.01 | 51 | 1008.3 |
| 20260902191016 | 81 | 120 | 6.0 | 15.0 | 0.00 | 0.01 | 0.01 | 52 | 1012.1 |
| 20260902190514 | 82 | 60 | 6.0 | 13.0 | 0.00 | 0.01 | 0.01 | 50 | 1012.1 |
| 20260902190018 | 82 | 85 | 6.0 | 13.0 | 0.00 | 0.01 | 0.01 | 52 | 1008.3 |
| 20260902190008 | 82 | 58 | 7.0 | 13.0 | 0.00 | 0.01 | 0.01 | 52 | 1012.1 |
| 20260902185507 | 82 | 86 | 5.0 | 13.0 | 0.00 | 0.01 | 0.01 | 51 | 1012.1 |
| 20260902185006 | 82 | 105 | 4.0 | 14.0 | 0.00 | 0.01 | 0.01 | 52 | 1012.2 |
| 20260902184520 | 82 | 8 | 8.0 | 14.0 | 0.00 | 0.01 | 0.01 | 51 | 1012.3 |
| 20260902184514 | 82 | 57 | 7.0 | 14.0 | 0.00 | 0.01 | 0.01 | 52 | 1008.5 |
| 20260902184011 | 82 | 75 | 10.0 | 14.0 | 0.00 | 0.01 | 0.01 | 52 | 1012.4 |
| 20260902183508 | 82 | 79 | 6.0 | 11.0 | 0.00 | 0.01 | 0.01 | 52 | 1012.4 |
| 20260902183020 | 82 | 77 | 6.0 | 11.0 | 0.00 | 0.01 | 0.01 | 50 | 1012.4 |
| 20260902183013 | 82 | 81 | 5.0 | 11.0 | 0.00 | 0.01 | 0.01 | 51 | 1008.7 |
| 20260902182514 | 82 | 61 | 5.0 | 10.0 | 0.00 | 0.01 | 0.01 | 53 | 1012.5 |
| 20260902182016 | 82 | 132 | 4.0 | 11.0 | 0.00 | 0.01 | 0.01 | 54 | 1012.5 |
| 20260902181527 | 81 | 51 | 6.0 | 12.0 | 0.00 | 0.01 | 0.01 | 54 | 1012.5 |
| 20260902181510 | 81 | 49 | 6.0 | 12.0 | 0.00 | 0.01 | 0.01 | 55 | 1008.8 |
| 20260902181011 | 81 | 51 | 5.0 | 12.0 | 0.00 | 0.01 | 0.01 | 53 | 1012.5 |
| 20260902180515 | 81 | 40 | 5.0 | 14.0 | 0.00 | 0.01 | 0.01 | 53 | 1012.7 |
| 20260902180032 | 81 | 98 | 6.0 | 14.0 | 0.00 | 0.01 | 0.01 | 53 | 1012.7 |
| 20260902180008 | 81 | 117 | 5.0 | 14.0 | 0.00 | 0.01 | 0.01 | 53 | 1008.9 |
| 20260902175516 | 81 | 63 | 6.0 | 10.0 | 0.00 | 0.01 | 0.01 | 52 | 1012.7 |
| 20260902175014 | 81 | 101 | 4.0 | 9.0 | 0.00 | 0.01 | 0.01 | 55 | 1012.7 |
| 20260902174512 | 80 | 60 | 3.0 | 11.0 | 0.00 | 0.01 | 0.01 | 55 | 1012.8 |
| 20260902174505 | 80 | 86 | 3.0 | 10.0 | 0.00 | 0.01 | 0.01 | 56 | 1008.9 |
| 20260902174008 | 80 | 41 | 6.0 | 11.0 | 0.00 | 0.01 | 0.01 | 55 | 1012.8 |
| 20260902173507 | 80 | 77 | 4.0 | 11.0 | 0.00 | 0.01 | 0.01 | 55 | 1012.8 |
| 20260902173017 | 80 | 131 | 5.0 | 10.0 | 0.00 | 0.01 | 0.01 | 56 | 1012.8 |
| 20260902173008 | 80 | 131 | 5.0 | 10.0 | 0.00 | 0.01 | 0.01 | 56 | 1009.1 |
| 20260902172508 | 79 | 86 | 5.0 | 10.0 | 0.00 | 0.01 | 0.01 | 54 | 1012.8 |
| 20260902172014 | 79 | 49 | 4.0 | 10.0 | 0.00 | 0.01 | 0.01 | 55 | 1012.9 |
| 20260902171525 | 79 | 51 | 5.0 | 10.0 | 0.00 | 0.01 | 0.01 | 56 | 1012.9 |
| 20260902171501 | 79 | 51 | 4.0 | 10.0 | 0.00 | 0.01 | 0.01 | 57 | 1009.2 |
| 20260902171017 | 79 | 52 | 7.0 | 10.0 | 0.00 | 0.01 | 0.01 | 56 | 1012.9 |
| 20260902170511 | 78 | 61 | 3.0 | 8.0 | 0.00 | 0.01 | 0.01 | 58 | 1012.9 |
| 20260902170059 | 78 | 63 | 3.0 | 8.0 | 0.00 | 0.01 | 0.01 | 58 | 1009.4 |
| 20260902170030 | 78 | 72 | 4.0 | 8.0 | 0.00 | 0.01 | 0.01 | 57 | 1012.9 |
| 20260902165515 | 78 | 90 | 3.0 | 11.0 | 0.00 | 0.01 | 0.01 | 58 | 1012.9 |
| 20260902165015 | 78 | 124 | 5.0 | 11.0 | 0.00 | 0.01 | 0.01 | 57 | 1012.8 |
| 20260902164559 | 78 | 66 | 6.0 | 10.0 | 0.00 | 0.01 | 0.01 | 57 | 1009.3 |
| 20260902164536 | 78 | 64 | 5.0 | 12.0 | 0.00 | 0.01 | 0.01 | 58 | 1012.8 |
| 20260902164014 | 78 | 108 | 4.0 | 12.0 | 0.00 | 0.01 | 0.01 | 57 | 1012.8 |
| 20260902163516 | 78 | 82 | 6.0 | 13.0 | 0.00 | 0.01 | 0.01 | 57 | 1012.8 |
| 20260902163100 | 78 | 108 | 4.0 | 13.0 | 0.00 | 0.01 | 0.01 | 57 | 1009.2 |
| 20260902163013 | 78 | 94 | 5.0 | 13.0 | 0.00 | 0.01 | 0.01 | 57 | 1012.7 |
| 20260902162508 | 77 | 117 | 7.0 | 12.0 | 0.00 | 0.01 | 0.01 | 56 | 1012.7 |
| 20260902162011 | 77 | 130 | 6.0 | 12.0 | 0.00 | 0.01 | 0.01 | 58 | 1012.7 |
| 20260902161602 | 77 | 17 | 3.0 | 10.0 | 0.00 | 0.01 | 0.01 | 63 | 1009.2 |
| 20260902161520 | 77 | 115 | 4.0 | 11.0 | 0.00 | 0.01 | 0.01 | 63 | 1012.7 |
| 20260902161009 | 76 | 63 | 5.0 | 11.0 | 0.00 | 0.01 | 0.01 | 62 | 1012.6 |
| 20260902160516 | 76 | 352 | 3.0 | 11.0 | 0.00 | 0.01 | 0.01 | 64 | 1012.6 |
| 20260902160053 | 75 | 68 | 5.0 | 11.0 | 0.00 | 0.01 | 0.01 | 62 | 1009.2 |
| 20260902160026 | 75 | 102 | 5.0 | 12.0 | 0.00 | 0.01 | 0.01 | 61 | 1012.7 |
| 20260902155514 | 75 | 98 | 5.0 | 12.0 | 0.00 | 0.01 | 0.01 | 63 | 1012.7 |
| 20260902155015 | 75 | 91 | 6.0 | 12.0 | 0.00 | 0.01 | 0.01 | 62 | 1012.7 |
| 20260902154548 | 75 | 52 | 4.0 | 9.0 | 0.00 | 0.01 | 0.01 | 64 | 1009.4 |
| 20260902154545 | 75 | 74 | 5.0 | 9.0 | 0.00 | 0.01 | 0.01 | 65 | 1012.8 |
| 20260902154019 | 75 | 70 | 5.0 | 11.0 | 0.00 | 0.01 | 0.01 | 64 | 1012.8 |
| 20260902153516 | 75 | 82 | 5.0 | 11.0 | 0.00 | 0.01 | 0.01 | 64 | 1012.8 |
| 20260902153048 | 75 | 101 | 5.0 | 11.0 | 0.00 | 0.01 | 0.01 | 63 | 1009.4 |
| 20260902153032 | 75 | 98 | 4.0 | 12.0 | 0.00 | 0.01 | 0.01 | 63 | 1012.8 |
| 20260902152516 | 75 | 91 | 6.0 | 12.0 | 0.00 | 0.01 | 0.01 | 64 | 1012.7 |
| 20260902152016 | 75 | 100 | 4.0 | 8.0 | 0.00 | 0.01 | 0.01 | 67 | 1012.7 |
| 20260902151546 | 74 | 91 | 4.0 | 9.0 | 0.00 | 0.01 | 0.01 | 68 | 1009.2 |
| 20260902151520 | 74 | 39 | 5.0 | 9.0 | 0.00 | 0.01 | 0.01 | 69 | 1012.7 |
| 20260902151008 | 74 | 38 | 5.0 | 9.0 | 0.00 | 0.01 | 0.01 | 70 | 1012.8 |
| 20260902150510 | 73 | 118 | 2.0 | 8.0 | 0.00 | 0.01 | 0.01 | 74 | 1012.8 |
| 20260902150041 | 72 | 69 | 4.0 | 8.0 | 0.00 | 0.01 | 0.01 | 75 | 1009.3 |
| 20260902150024 | 72 | 105 | 5.0 | 8.0 | 0.00 | 0.01 | 0.01 | 74 | 1013.0 |
| 20260902145512 | 72 | 44 | 4.0 | 7.0 | 0.00 | 0.01 | 0.01 | 74 | 1013.0 |
| 20260902145013 | 72 | 56 | 4.0 | 9.0 | 0.00 | 0.01 | 0.01 | 75 | 1013.1 |
| 20260902144638 | 71 | 103 | 2.0 | 9.0 | 0.00 | 0.01 | 0.01 | 75 | 1009.6 |
| 20260902144529 | 72 | 58 | 5.0 | 9.0 | 0.00 | 0.01 | 0.01 | 74 | 1013.2 |
| 20260902144016 | 72 | 57 | 5.0 | 7.0 | 0.00 | 0.01 | 0.01 | 74 | 1013.3 |
| 20260902143520 | 71 | 103 | 3.0 | 6.0 | 0.00 | 0.01 | 0.01 | 74 | 1013.4 |
| 20260902143035 | 71 | 32 | 2.0 | 6.0 | 0.00 | 0.01 | 0.01 | 75 | 1009.9 |
| 20260902143028 | 71 | 54 | 2.0 | 6.0 | 0.00 | 0.01 | 0.01 | 75 | 1013.4 |
| 20260902142517 | 71 | 83 | 3.0 | 5.0 | 0.00 | 0.01 | 0.01 | 74 | 1013.4 |
| 20260902142017 | 70 | 114 | 2.0 | 3.0 | 0.00 | 0.01 | 0.01 | 76 | 1013.3 |
| 20260902141536 | 70 | 133 | 1.0 | 2.0 | 0.00 | 0.01 | 0.01 | 76 | 1013.3 |
| 20260902141531 | 70 | 142 | 1.0 | 2.0 | 0.00 | 0.01 | 0.01 | 77 | 1009.8 |
| 20260902141016 | 69 | 89 | 0.0 | 2.0 | 0.00 | 0.01 | 0.01 | 77 | 1013.4 |
| 20260902140516 | 68 | 118 | 1.0 | 3.0 | 0.00 | 0.01 | 0.01 | 78 | 1013.5 |
| 20260902140034 | 67 | 110 | 1.0 | 3.0 | 0.00 | 0.01 | 0.01 | 80 | 1010.0 |
| 20260902140020 | 67 | 148 | 2.0 | 4.0 | 0.00 | 0.01 | 0.01 | 79 | 1013.5 |
| 20260902135507 | 66 | 116 | 1.0 | 4.0 | 0.00 | 0.01 | 0.01 | 81 | 1013.5 |
| 20260902135012 | 66 | 104 | 1.0 | 3.0 | 0.00 | 0.01 | 0.01 | 82 | 1013.5 |
| 20260902134529 | 66 | 110 | 0.0 | 1.0 | 0.00 | 0.01 | 0.01 | 83 | 1010.2 |
| 20260902134526 | 66 | 233 | 0.0 | 1.0 | 0.00 | 0.01 | 0.01 | 83 | 1013.6 |
| 20260902134011 | 65 | 233 | 0.0 | 1.0 | 0.00 | 0.01 | 0.01 | 84 | 1013.8 |
| 20260902133511 | 65 | 233 | 0.0 | 1.0 | 0.00 | 0.01 | 0.01 | 84 | 1013.9 |
| 20260902133033 | 65 | 233 | 0.0 | 1.0 | 0.00 | 0.01 | 0.01 | 85 | 1010.5 |
| 20260902133027 | 65 | 233 | 0.0 | 1.0 | 0.00 | 0.01 | 0.01 | 84 | 1013.9 |
| 20260902132516 | 65 | 229 | 0.0 | 2.0 | 0.00 | 0.01 | 0.01 | 85 | 1013.9 |
| 20260902132015 | 65 | 236 | 1.0 | 2.0 | 0.00 | 0.01 | 0.01 | 83 | 1013.8 |
| 20260902131535 | 65 | 3 | 0.0 | 0.0 | 0.00 | 0.01 | 0.01 | 83 | 1010.3 |
| 20260902131508 | 65 | 3 | 0.0 | 1.0 | 0.00 | 0.01 | 0.01 | 83 | 1013.7 |
| 20260902131004 | 65 | 3 | 0.0 | 1.0 | 0.00 | 0.01 | 0.01 | 83 | 1013.5 |
| 20260902130507 | 65 | 3 | 0.0 | 3.0 | 0.00 | 0.01 | 0.01 | 82 | 1013.5 |
| 20260902130028 | 65 | 313 | 0.0 | 6.0 | 0.00 | 0.01 | 0.01 | 82 | 1013.5 |
| 20260902130026 | 65 | 313 | 0.0 | 6.0 | 0.00 | 0.01 | 0.01 | 83 | 1010.2 |
| 20260902125505 | 64 | 23 | 2.0 | 7.0 | 0.00 | 0.01 | 0.01 | 82 | 1013.6 |
| 20260902125012 | 64 | 23 | 3.0 | 9.0 | 0.00 | 0.01 | 0.01 | 83 | 1013.2 |
| 20260902124531 | 64 | 51 | 3.0 | 9.0 | 0.00 | 0.01 | 0.01 | 84 | 1009.6 |
| 20260902124523 | 64 | 51 | 4.0 | 10.0 | 0.00 | 0.01 | 0.01 | 83 | 1013.0 |
| 20260902124011 | 64 | 68 | 5.0 | 10.0 | 0.00 | 0.01 | 0.01 | 83 | 1012.8 |
| 20260902123512 | 64 | 80 | 5.0 | 7.0 | 0.00 | 0.01 | 0.01 | 84 | 1012.9 |
| 20260902123029 | 64 | 44 | 4.0 | 7.0 | 0.00 | 0.01 | 0.01 | 84 | 1013.1 |
| 20260902123024 | 64 | 44 | 3.0 | 7.0 | 0.00 | 0.01 | 0.01 | 85 | 1009.8 |
| 20260902122504 | 64 | 63 | 4.0 | 7.0 | 0.00 | 0.01 | 0.01 | 83 | 1013.4 |
| 20260902122005 | 64 | 56 | 3.0 | 5.0 | 0.00 | 0.01 | 0.01 | 83 | 1013.4 |
| 20260902121524 | 64 | 57 | 3.0 | 6.0 | 0.00 | 0.01 | 0.01 | 83 | 1010.1 |
| 20260902121506 | 64 | 51 | 3.0 | 6.0 | 0.00 | 0.01 | 0.01 | 83 | 1013.5 |
| 20260902121003 | 64 | 60 | 4.0 | 6.0 | 0.00 | 0.01 | 0.01 | 83 | 1013.5 |
| 20260902120504 | 64 | 70 | 0.0 | 3.0 | 0.00 | 0.01 | 0.01 | 82 | 1013.9 |
| 20260902120026 | 64 | 53 | 0.0 | 3.0 | 0.01 | 0.01 | 0.01 | 83 | 1010.6 |
| 20260902120014 | 64 | 53 | 0.0 | 3.0 | 0.01 | 0.01 | 0.01 | 82 | 1014.0 |
| 20260902115503 | 64 | 8 | 1.0 | 4.0 | 0.01 | 0.01 | 0.01 | 81 | 1013.9 |
| 20260902115014 | 64 | 98 | 2.0 | 4.0 | 0.01 | 0.01 | 0.01 | 80 | 1013.8 |
| 20260902114538 | 65 | 63 | 1.0 | 4.0 | 0.01 | 0.01 | 0.01 | 81 | 1010.3 |
| 20260902114523 | 65 | 65 | 1.0 | 4.0 | 0.01 | 0.01 | 0.01 | 80 | 1013.6 |
| 20260902114010 | 65 | 63 | 2.0 | 4.0 | 0.01 | 0.01 | 0.01 | 79 | 1013.7 |
| 20260902113509 | 65 | 80 | 0.0 | 6.0 | 0.01 | 0.01 | 0.01 | 79 | 1013.7 |
| 20260902113026 | 65 | 60 | 2.0 | 6.0 | 0.01 | 0.01 | 0.01 | 79 | 1013.5 |
| 20260902113020 | 65 | 60 | 1.0 | 6.0 | 0.01 | 0.01 | 0.01 | 80 | 1010.2 |
| 20260902112511 | 65 | 68 | 3.0 | 6.0 | 0.01 | 0.01 | 0.01 | 80 | 1013.6 |
| 20260902112014 | 65 | 131 | 0.0 | 1.0 | 0.01 | 0.01 | 0.01 | 79 | 1014.2 |
| 20260902111532 | 65 | 150 | 0.0 | 3.0 | 0.01 | 0.01 | 0.01 | 80 | 1014.5 |
| 20260902111520 | 65 | 179 | 0.0 | 3.0 | 0.01 | 0.01 | 0.01 | 80 | 1011.2 |
| 20260902111003 | 65 | 356 | 0.0 | 6.0 | 0.01 | 0.01 | 0.01 | 79 | 1014.2 |
| 20260902110503 | 65 | 347 | 2.0 | 6.0 | 0.01 | 0.01 | 0.01 | 80 | 1013.7 |
| 20260902110025 | 65 | 61 | 3.0 | 5.0 | 0.00 | 0.00 | 0.00 | 79 | 1010.2 |
| 20260902110008 | 65 | 64 | 3.0 | 5.0 | 0.00 | 0.00 | 0.00 | 78 | 1013.6 |
| 20260902105503 | 65 | 58 | 2.0 | 3.0 | 0.00 | 0.00 | 0.00 | 77 | 1014.0 |
| 20260902105009 | 65 | 95 | 0.0 | 2.0 | 0.00 | 0.00 | 0.00 | 78 | 1014.1 |
| 20260902104527 | 65 | 91 | 0.0 | 4.0 | 0.00 | 0.00 | 0.00 | 79 | 1010.6 |
| 20260902104519 | 65 | 91 | 1.0 | 4.0 | 0.00 | 0.00 | 0.00 | 78 | 1014.0 |
| 20260902104008 | 65 | 10 | 1.0 | 4.0 | 0.00 | 0.00 | 0.00 | 78 | 1013.9 |
| 20260902103507 | 65 | 44 | 2.0 | 4.0 | 0.00 | 0.00 | 0.00 | 78 | 1014.1 |
| 20260902103032 | 65 | 34 | 2.0 | 6.0 | 0.00 | 0.00 | 0.00 | 79 | 1013.9 |
| 20260902103022 | 65 | 59 | 1.0 | 5.0 | 0.00 | 0.00 | 0.00 | 79 | 1010.6 |
| 20260902102510 | 65 | 56 | 2.0 | 6.0 | 0.00 | 0.00 | 0.00 | 79 | 1013.6 |
| 20260902102010 | 65 | 38 | 4.0 | 6.0 | 0.00 | 0.00 | 0.00 | 80 | 1013.5 |
| 20260902101523 | 65 | 34 | 4.0 | 7.0 | 0.00 | 0.00 | 0.00 | 79 | 1013.7 |
| 20260902101516 | 65 | 43 | 3.0 | 6.0 | 0.00 | 0.00 | 0.00 | 79 | 1010.3 |
| 20260902101011 | 65 | 34 | 3.0 | 7.0 | 0.00 | 0.00 | 0.00 | 77 | 1013.7 |
| 20260902100514 | 65 | 48 | 4.0 | 7.0 | 0.00 | 0.00 | 0.00 | 79 | 1013.5 |
| 20260902100027 | 65 | 60 | 4.0 | 7.0 | 0.00 | 0.00 | 0.00 | 79 | 1013.3 |
| 20260902100014 | 65 | 63 | 4.0 | 7.0 | 0.00 | 0.00 | 0.00 | 79 | 1010.1 |
| 20260902095503 | 65 | 65 | 4.0 | 7.0 | 0.00 | 0.00 | 0.00 | 79 | 1013.3 |
| 20260902095003 | 65 | 60 | 3.0 | 8.0 | 0.00 | 0.00 | 0.00 | 79 | 1013.4 |
| 20260902094513 | 65 | 70 | 4.0 | 8.0 | 0.00 | 0.00 | 0.00 | 81 | 1009.8 |
| 20260902094007 | 65 | 49 | 5.0 | 8.0 | 0.00 | 0.00 | 0.00 | 81 | 1013.1 |
| 20260902093507 | 65 | 14 | 6.0 | 8.0 | 0.00 | 0.00 | 0.00 | 82 | 1013.2 |
| 20260902093020 | 65 | 54 | 4.0 | 7.0 | 0.00 | 0.00 | 0.00 | 83 | 1013.3 |
| 20260902093011 | 65 | 39 | 3.0 | 7.0 | 0.00 | 0.00 | 0.00 | 83 | 1009.9 |
| 20260902092509 | 65 | 63 | 3.0 | 7.0 | 0.00 | 0.00 | 0.00 | 83 | 1013.3 |
| 20260902092010 | 65 | 34 | 3.0 | 7.0 | 0.00 | 0.00 | 0.00 | 83 | 1013.3 |
| 20260902091526 | 65 | 62 | 4.0 | 6.0 | 0.00 | 0.00 | 0.00 | 83 | 1013.3 |
| 20260902091510 | 65 | 51 | 3.0 | 6.0 | 0.00 | 0.00 | 0.00 | 84 | 1009.9 |
| 20260902091012 | 65 | 60 | 3.0 | 6.0 | 0.00 | 0.00 | 0.00 | 82 | 1013.4 |
| 20260902090514 | 66 | 69 | 4.0 | 9.0 | 0.00 | 0.00 | 0.00 | 81 | 1013.3 |
| 20260902090028 | 66 | 74 | 5.0 | 9.0 | 0.00 | 0.00 | 0.00 | 82 | 1013.4 |
| 20260902090006 | 66 | 78 | 4.0 | 9.0 | 0.00 | 0.00 | 0.00 | 82 | 1010.1 |
| 20260902085518 | 66 | 39 | 3.0 | 6.0 | 0.00 | 0.00 | 0.00 | 82 | 1013.4 |
| 20260902085013 | 66 | 58 | 4.0 | 6.0 | 0.00 | 0.00 | 0.00 | 82 | 1013.5 |
| 20260902084529 | 67 | 56 | 3.0 | 5.0 | 0.00 | 0.00 | 0.00 | 81 | 1013.5 |
| 20260902084511 | 67 | 56 | 2.0 | 5.0 | 0.00 | 0.00 | 0.00 | 81 | 1010.3 |
| 20260902084003 | 67 | 57 | 3.0 | 5.0 | 0.00 | 0.00 | 0.00 | 80 | 1013.5 |
| 20260902083504 | 67 | 53 | 2.0 | 5.0 | 0.00 | 0.00 | 0.00 | 80 | 1013.4 |
| 20260902083012 | 67 | 54 | 3.0 | 5.0 | 0.00 | 0.00 | 0.00 | 81 | 1013.4 |
| 20260902083003 | 67 | 54 | 2.0 | 5.0 | 0.00 | 0.00 | 0.00 | 81 | 1010.1 |
| 20260902082507 | 67 | 60 | 1.0 | 5.0 | 0.00 | 0.00 | 0.00 | 81 | 1013.6 |
| 20260902082008 | 67 | 69 | 3.0 | 4.0 | 0.00 | 0.00 | 0.00 | 81 | 1013.6 |
| 20260902081519 | 67 | 66 | 2.0 | 6.0 | 0.00 | 0.00 | 0.00 | 81 | 1013.5 |
| 20260902081503 | 67 | 66 | 2.0 | 6.0 | 0.00 | 0.00 | 0.00 | 81 | 1010.2 |
| 20260902081010 | 67 | 49 | 3.0 | 6.0 | 0.00 | 0.00 | 0.00 | 80 | 1013.5 |
| 20260902080510 | 67 | 53 | 4.0 | 7.0 | 0.00 | 0.00 | 0.00 | 80 | 1013.3 |
| 20260902080028 | 67 | 58 | 3.0 | 7.0 | 0.00 | 0.00 | 0.00 | 82 | 1013.4 |
| 20260902080003 | 67 | 58 | 2.0 | 7.0 | 0.00 | 0.00 | 0.00 | 82 | 1010.0 |
| 20260902075513 | 67 | 34 | 4.0 | 7.0 | 0.00 | 0.00 | 0.00 | 83 | 1013.5 |
| 20260902075013 | 67 | 354 | 3.0 | 7.0 | 0.00 | 0.00 | 0.00 | 83 | 1013.7 |
| 20260902074613 | 67 | 340 | 4.0 | 7.0 | 0.00 | 0.00 | 0.00 | 83 | 1010.5 |
| 20260902074528 | 67 | 335 | 4.0 | 7.0 | 0.00 | 0.00 | 0.00 | 82 | 1013.9 |
| 20260902074014 | 67 | 335 | 2.0 | 4.0 | 0.00 | 0.00 | 0.00 | 80 | 1013.8 |
| 20260902073512 | 67 | 19 | 3.0 | 4.0 | 0.00 | 0.00 | 0.00 | 80 | 1013.7 |
| 20260902073106 | 67 | 53 | 1.0 | 4.0 | 0.00 | 0.00 | 0.00 | 80 | 1010.4 |
| 20260902073032 | 67 | 40 | 2.0 | 4.0 | 0.00 | 0.00 | 0.00 | 80 | 1013.6 |
| 20260902072506 | 67 | 43 | 1.0 | 3.0 | 0.00 | 0.00 | 0.00 | 80 | 1013.5 |
| 20260902072006 | 67 | 20 | 1.0 | 5.0 | 0.00 | 0.00 | 0.00 | 79 | 1013.4 |
| 20260902071603 | 67 | 65 | 1.0 | 5.0 | 0.00 | 0.00 | 0.00 | 80 | 1010.1 |
| 20260902071519 | 67 | 75 | 2.0 | 5.0 | 0.00 | 0.00 | 0.00 | 80 | 1013.3 |
| 20260902071008 | 67 | 64 | 3.0 | 5.0 | 0.00 | 0.00 | 0.00 | 80 | 1013.3 |
| 20260902070509 | 67 | 49 | 3.0 | 5.0 | 0.00 | 0.00 | 0.00 | 80 | 1013.3 |
| 20260902070059 | 67 | 58 | 2.0 | 6.0 | 0.00 | 0.00 | 0.00 | 81 | 1010.0 |
| 20260902070020 | 67 | 49 | 2.0 | 6.0 | 0.00 | 0.00 | 0.00 | 82 | 1013.3 |
| 20260902065510 | 67 | 43 | 2.0 | 6.0 | 0.00 | 0.00 | 0.00 | 83 | 1013.3 |
| 20260902065012 | 67 | 55 | 4.0 | 6.0 | 0.00 | 0.00 | 0.00 | 83 | 1013.3 |
| 20260902064601 | 67 | 14 | 2.0 | 5.0 | 0.00 | 0.00 | 0.00 | 84 | 1009.9 |
| 20260902064527 | 67 | 33 | 3.0 | 5.0 | 0.00 | 0.00 | 0.00 | 83 | 1013.3 |
| 20260902064014 | 67 | 62 | 2.0 | 5.0 | 0.00 | 0.00 | 0.00 | 83 | 1013.4 |
| 20260902063517 | 67 | 28 | 3.0 | 5.0 | 0.00 | 0.00 | 0.00 | 82 | 1013.4 |
| 20260902063057 | 67 | 40 | 2.0 | 4.0 | 0.00 | 0.00 | 0.00 | 82 | 1010.1 |
| 20260902063028 | 67 | 58 | 3.0 | 4.0 | 0.00 | 0.00 | 0.00 | 81 | 1013.4 |
| 20260902062517 | 68 | 37 | 2.0 | 5.0 | 0.00 | 0.00 | 0.00 | 80 | 1013.6 |
| 20260902062004 | 68 | 56 | 3.0 | 5.0 | 0.00 | 0.00 | 0.00 | 80 | 1013.6 |
| 20260902061556 | 68 | 54 | 2.0 | 5.0 | 0.00 | 0.00 | 0.00 | 80 | 1010.2 |
| 20260902061514 | 68 | 62 | 3.0 | 5.0 | 0.00 | 0.00 | 0.00 | 80 | 1013.6 |
| 20260902061011 | 68 | 37 | 2.0 | 5.0 | 0.00 | 0.00 | 0.00 | 80 | 1013.7 |
| 20260902060508 | 68 | 46 | 2.0 | 6.0 | 0.00 | 0.00 | 0.00 | 81 | 1013.8 |
| 20260902060058 | 68 | 65 | 1.0 | 6.0 | 0.00 | 0.00 | 0.00 | 81 | 1010.5 |
| 20260902060018 | 68 | 58 | 1.0 | 6.0 | 0.00 | 0.00 | 0.00 | 81 | 1013.8 |
| 20260902055510 | 68 | 72 | 3.0 | 6.0 | 0.00 | 0.00 | 0.00 | 82 | 1013.8 |
| 20260902055010 | 68 | 43 | 2.0 | 4.0 | 0.00 | 0.00 | 0.00 | 83 | 1013.7 |
| 20260902054552 | 68 | 18 | 1.0 | 2.0 | 0.00 | 0.00 | 0.00 | 84 | 1010.6 |
| 20260902054531 | 68 | 18 | 1.0 | 2.0 | 0.00 | 0.00 | 0.00 | 84 | 1013.9 |
| 20260902054009 | 68 | 347 | 1.0 | 3.0 | 0.00 | 0.00 | 0.00 | 83 | 1013.9 |
| 20260902053514 | 68 | 36 | 1.0 | 4.0 | 0.00 | 0.00 | 0.00 | 83 | 1013.9 |
| 20260902053101 | 68 | 319 | 1.0 | 4.0 | 0.00 | 0.00 | 0.00 | 83 | 1010.6 |
| 20260902053026 | 68 | 320 | 2.0 | 4.0 | 0.00 | 0.00 | 0.00 | 83 | 1014.0 |
| 20260902052502 | 69 | 338 | 3.0 | 4.0 | 0.00 | 0.00 | 0.00 | 81 | 1014.1 |
| 20260902052003 | 69 | 82 | 0.0 | 2.0 | 0.00 | 0.00 | 0.00 | 80 | 1014.1 |
| 20260902051552 | 69 | 152 | 1.0 | 2.0 | 0.00 | 0.00 | 0.00 | 80 | 1010.6 |
| 20260902051509 | 69 | 153 | 2.0 | 2.0 | 0.00 | 0.00 | 0.00 | 80 | 1014.0 |
| 20260902051002 | 69 | 95 | 0.0 | 3.0 | 0.00 | 0.00 | 0.00 | 80 | 1013.8 |
| 20260902050506 | 69 | 63 | 1.0 | 5.0 | 0.00 | 0.00 | 0.00 | 80 | 1013.8 |
| 20260902050044 | 69 | 51 | 1.0 | 6.0 | 0.00 | 0.00 | 0.00 | 81 | 1010.4 |
| 20260902050015 | 69 | 51 | 2.0 | 6.0 | 0.00 | 0.00 | 0.00 | 80 | 1013.8 |
| 20260902045507 | 69 | 68 | 2.0 | 6.0 | 0.00 | 0.00 | 0.00 | 81 | 1013.6 |
| 20260902045010 | 69 | 109 | 2.0 | 6.0 | 0.00 | 0.00 | 0.00 | 81 | 1013.6 |
| 20260902044541 | 69 | 100 | 2.0 | 6.0 | 0.00 | 0.00 | 0.00 | 82 | 1010.1 |
| 20260902044520 | 69 | 65 | 2.0 | 6.0 | 0.00 | 0.00 | 0.00 | 82 | 1013.6 |
| 20260902044012 | 69 | 76 | 3.0 | 6.0 | 0.00 | 0.00 | 0.00 | 82 | 1013.7 |
| 20260902043511 | 69 | 55 | 3.0 | 6.0 | 0.00 | 0.00 | 0.00 | 82 | 1013.6 |
| 20260902043040 | 69 | 74 | 2.0 | 5.0 | 0.00 | 0.00 | 0.00 | 82 | 1010.2 |
| 20260902043031 | 69 | 67 | 3.0 | 6.0 | 0.00 | 0.00 | 0.00 | 82 | 1013.6 |
| 20260902042514 | 69 | 71 | 3.0 | 6.0 | 0.00 | 0.00 | 0.00 | 82 | 1013.4 |
| 20260902042011 | 69 | 48 | 3.0 | 8.0 | 0.00 | 0.00 | 0.00 | 82 | 1013.3 |
| 20260902041541 | 69 | 39 | 4.0 | 8.0 | 0.00 | 0.00 | 0.00 | 82 | 1009.9 |
| 20260902041531 | 69 | 56 | 5.0 | 8.0 | 0.00 | 0.00 | 0.00 | 81 | 1013.4 |
| 20260902041003 | 70 | 25 | 4.0 | 7.0 | 0.00 | 0.00 | 0.00 | 81 | 1013.4 |
| 20260902040503 | 70 | 63 | 2.0 | 6.0 | 0.00 | 0.00 | 0.00 | 80 | 1013.5 |
| 20260902040038 | 70 | 51 | 3.0 | 7.0 | 0.00 | 0.00 | 0.00 | 80 | 1010.1 |
| 20260902040011 | 70 | 58 | 2.0 | 7.0 | 0.00 | 0.00 | 0.00 | 80 | 1013.6 |
| 20260902035504 | 70 | 20 | 3.0 | 8.0 | 0.00 | 0.00 | 0.00 | 80 | 1013.6 |
| 20260902035010 | 70 | 59 | 5.0 | 8.0 | 0.00 | 0.00 | 0.00 | 81 | 1013.6 |
| 20260902034542 | 70 | 60 | 3.0 | 6.0 | 0.00 | 0.00 | 0.00 | 82 | 1010.3 |
| 20260902034516 | 70 | 59 | 4.0 | 6.0 | 0.00 | 0.00 | 0.00 | 81 | 1013.7 |
| 20260902034010 | 70 | 27 | 3.0 | 5.0 | 0.00 | 0.00 | 0.00 | 81 | 1014.0 |
| 20260902033507 | 70 | 54 | 2.0 | 5.0 | 0.00 | 0.00 | 0.00 | 81 | 1014.2 |
| 20260902033036 | 70 | 57 | 1.0 | 5.0 | 0.00 | 0.00 | 0.00 | 82 | 1010.8 |
| 20260902033026 | 70 | 69 | 1.0 | 5.0 | 0.00 | 0.00 | 0.00 | 81 | 1014.2 |
| 20260902032512 | 70 | 74 | 2.0 | 6.0 | 0.00 | 0.00 | 0.00 | 82 | 1014.2 |
| 20260902032018 | 70 | 63 | 3.0 | 6.0 | 0.00 | 0.00 | 0.00 | 81 | 1014.2 |
| 20260902031535 | 70 | 56 | 2.0 | 4.0 | 0.00 | 0.00 | 0.00 | 81 | 1010.8 |
| 20260902031529 | 70 | 64 | 3.0 | 5.0 | 0.00 | 0.00 | 0.00 | 81 | 1014.0 |
| 20260902031016 | 70 | 53 | 2.0 | 6.0 | 0.00 | 0.00 | 0.00 | 81 | 1014.1 |
| 20260902030515 | 71 | 32 | 3.0 | 8.0 | 0.00 | 0.00 | 0.00 | 80 | 1014.0 |
| 20260902030033 | 71 | 39 | 3.0 | 8.0 | 0.00 | 0.00 | 0.00 | 79 | 1010.6 |
| 20260902030028 | 71 | 50 | 4.0 | 8.0 | 0.00 | 0.00 | 0.00 | 79 | 1013.8 |
| 20260902025503 | 71 | 63 | 3.0 | 6.0 | 0.00 | 0.00 | 0.00 | 79 | 1013.9 |
| 20260902025007 | 70 | 51 | 4.0 | 7.0 | 0.00 | 0.00 | 0.00 | 80 | 1014.0 |
| 20260902024537 | 70 | 58 | 3.0 | 7.0 | 0.00 | 0.00 | 0.00 | 81 | 1010.6 |
| 20260902024513 | 70 | 60 | 4.0 | 7.0 | 0.00 | 0.00 | 0.00 | 80 | 1014.0 |
| 20260902024008 | 70 | 56 | 3.0 | 7.0 | 0.00 | 0.00 | 0.00 | 80 | 1013.9 |
| 20260902023508 | 71 | 60 | 3.0 | 6.0 | 0.00 | 0.00 | 0.00 | 79 | 1014.0 |
| 20260902023037 | 71 | 56 | 2.0 | 6.0 | 0.00 | 0.00 | 0.00 | 79 | 1010.6 |
| 20260902023034 | 71 | 43 | 3.0 | 6.0 | 0.00 | 0.00 | 0.00 | 78 | 1013.9 |
| 20260902022507 | 71 | 63 | 3.0 | 6.0 | 0.00 | 0.00 | 0.00 | 77 | 1013.8 |
| 20260902022012 | 71 | 20 | 4.0 | 6.0 | 0.00 | 0.00 | 0.00 | 77 | 1013.6 |
| 20260902021538 | 71 | 34 | 4.0 | 6.0 | 0.00 | 0.00 | 0.00 | 77 | 1013.5 |
| 20260902021535 | 71 | 55 | 3.0 | 6.0 | 0.00 | 0.00 | 0.00 | 78 | 1010.2 |
| 20260902021014 | 71 | 20 | 2.0 | 4.0 | 0.00 | 0.00 | 0.00 | 77 | 1013.5 |
| 20260902020513 | 71 | 59 | 3.0 | 4.0 | 0.00 | 0.00 | 0.00 | 77 | 1013.4 |
| 20260902020032 | 71 | 57 | 2.0 | 5.0 | 0.00 | 0.00 | 0.00 | 78 | 1010.2 |
| 20260902020029 | 71 | 68 | 3.0 | 5.0 | 0.00 | 0.00 | 0.00 | 77 | 1013.4 |
| 20260902015516 | 71 | 59 | 3.0 | 6.0 | 0.00 | 0.00 | 0.00 | 77 | 1013.3 |
| 20260902015016 | 71 | 61 | 3.0 | 6.0 | 0.00 | 0.00 | 0.00 | 76 | 1013.3 |
| 20260902014535 | 72 | 53 | 2.0 | 5.0 | 0.00 | 0.00 | 0.00 | 76 | 1010.1 |
| 20260902014531 | 72 | 56 | 2.0 | 5.0 | 0.00 | 0.00 | 0.00 | 75 | 1013.4 |
| 20260902014006 | 72 | 58 | 2.0 | 4.0 | 0.00 | 0.00 | 0.00 | 74 | 1013.5 |